Regional Weather Roundup
Issued by NWS

Home | Current Version | Previous Version | Graphics & Text | Print | Product List | Glossary On
Versions: 1 2 3 4 5 6 7 8 9 10 11 12 13 14 15 16 17 18 19 20 21 22 23 24 25 26 27 28 29 30 31 32 33 34 35 36 37 38 39 40 41 42 43 44 45 46 47 48 49 50
000
ASUS43 KFSD 250610
RWRSD

WEATHER ROUNDUP FOR SOUTH DAKOTA
NATIONAL WEATHER SERVICE SIOUX FALLS SD
100 AM CDT WED MAY 25 2016

NOTE: "FAIR" INDICATES FEW OR NO CLOUDS BELOW 12,000 FEET WITH NO
SIGNIFICANT WEATHER AND/OR OBSTRUCTIONS TO VISIBILITY.


SDZ001>005-009-010-012>017-250700-
NORTHWEST AND NORTH CENTRAL SOUTH DAKOTA

CITY           SKY/WX    TMP DP  RH WIND       PRES   REMARKS
BUFFALO          N/A     54  45  71 W6        29.82R
FAITH            N/A     56  46  69 SE12      29.81F
MOBRIDGE       LGT RAIN  63  52  67 SW13G22   29.84F
$$

SDZ012>016-024>037-041>051-057-063-072>074-250700-
SOUTHWEST AND SOUTH CENTRAL SOUTH DAKOTA

CITY           SKY/WX    TMP DP  RH WIND       PRES   REMARKS
RAPID CTY ARPT CLOUDY    53  48  83 SW16      29.92R
PIERRE         LGT RAIN  58  55  90 N17G26    29.83F
CUSTER         CLOUDY    46  43  89 NW7       29.90F
PHILIP         CLOUDY    56  50  80 NE21G28   29.78F
PINE RIDGE     CLOUDY    52  48  86 E10       29.81F
WINNER         TSTM      60  55  83 NW17G35   29.83R
$$

SDZ004>011-016>023-039-040-250700-
NORTHEAST SOUTH DAKOTA

CITY           SKY/WX    TMP DP  RH WIND       PRES   REMARKS
ABERDEEN       MOCLDY    66  51  58 NE10      29.80F
WATERTOWN      PTCLDY    69  50  50 SE6       29.83F
BROOKINGS      CLOUDY    66  58  75 SE9       29.84F
SISSETON         N/A     62  48  60 E7        29.83F
$$

SDZ017-020-022-023-036>040-048>070-250700-
SOUTHEAST SOUTH DAKOTA

CITY           SKY/WX    TMP DP  RH WIND       PRES   REMARKS
SIOUX FALLS    CLOUDY    70  62  76 SE9       29.83F
HURON          CLOUDY    68  58  70 SE10      29.78F
CHAMBERLAIN    CLOUDY    63  59  85 NW14G32   29.79R
MITCHELL       CLOUDY    71  63  75 SE15      29.78F
YANKTON        CLOUDY    64  59  82 E7        29.79F
$$

ABBREVIATIONS USED IN REMARKS
   TC - TEMPERATURE IN CELSIUS
  WCI - WIND CHILL INDEX
   HX - HEAT INDEX
  VSB - VISIBILITY





USA.gov is the U.S. government's official web portal to all federal, state and local government web resources and services.